Location: Brno
(49.2000°N, 16.6330°E)
Time: 10:34:26
(UTC+02:00)

SR - All Passes

Search period start: 24 July 2021 00:00
Search period end: 03 August 2021 00:00
Orbit: 577 x 878 km, 66.7° (Epoch: 23 July)

Date Brightness Start Highest point End Pass type
(mag) Time Alt. Az. Time Alt. Az. Time Alt. Az.
24 Jul - 07:24:29 10° SE 07:27:12 14° ESE 07:29:51 10° ENE daylight
24 Jul - 09:02:38 10° SSW 09:08:27 71° ESE 09:13:58 10° NE daylight
24 Jul - 10:45:57 10° W 10:50:59 30° NW 10:55:46 10° NNE daylight
24 Jul - 12:32:10 10° NW 12:34:47 13° NNW 12:37:19 10° NNE daylight
24 Jul - 14:17:00 10° NNW 14:19:14 13° NNE 14:21:23 10° NE daylight
24 Jul - 15:58:42 10° NNW 16:03:06 28° NE 16:07:10 10° E daylight
24 Jul - 17:40:40 10° NW 17:45:33 60° WSW 17:50:01 10° SSE daylight
25 Jul - 08:13:20 10° S 08:18:45 41° ESE 08:23:56 10° NE daylight
25 Jul - 09:55:17 10° WSW 10:00:51 46° NW 10:06:07 10° NNE daylight
25 Jul - 11:40:44 10° WNW 11:44:14 17° NNW 11:47:36 10° NNE daylight
25 Jul - 13:26:53 10° NNW 13:28:35 11° N 13:30:15 10° NNE daylight
25 Jul - 15:09:03 10° NNW 15:12:46 20° NNE 15:16:16 10° ENE daylight
25 Jul - 16:50:46 10° NNW 16:55:47 74° NE 17:00:19 10° SE daylight
25 Jul - 18:34:03 10° WNW 18:37:08 17° WSW 18:40:04 10° SSW daylight
26 Jul - 07:24:44 10° SSE 07:29:13 23° ESE 07:33:33 10° ENE daylight
26 Jul - 09:05:03 10° SW 09:10:52 75° NW 09:16:23 10° NNE daylight
26 Jul - 10:49:27 10° W 10:53:48 22° NNW 10:57:59 10° NNE daylight
26 Jul - 12:36:02 10° NNW 12:37:55 12° N 12:39:45 10° NNE daylight
26 Jul - 14:19:24 10° NNW 14:22:18 15° NNE 14:25:04 10° NE daylight
26 Jul - 16:01:00 10° NNW 16:05:48 42° NE 16:10:10 10° ESE daylight
26 Jul - 17:43:23 10° NW 17:47:44 33° WSW 17:51:45 10° S daylight
27 Jul - 06:37:31 10° SE 06:39:50 13° ESE 06:42:08 10° E daylight
27 Jul - 08:15:16 10° SSW 08:21:03 67° ESE 08:26:32 10° NE daylight
27 Jul - 09:58:27 10° WSW 10:03:32 32° NW 10:08:21 10° NNE daylight
27 Jul - 11:44:39 10° NW 11:47:17 13° NNW 11:49:51 10° NNE daylight
27 Jul - 13:29:38 10° NNW 13:31:43 12° N 13:33:44 10° NE daylight
27 Jul - 15:11:19 10° NNW 15:15:37 27° NE 15:19:36 10° E daylight
27 Jul - 16:53:14 10° NW 16:58:07 64° WSW 17:02:35 10° SSE daylight
28 Jul - 07:26:02 10° S 07:31:22 38° ESE 07:36:28 10° NE daylight
28 Jul - 09:07:50 10° WSW 09:13:25 48° NW 09:18:41 10° NNE daylight
28 Jul - 10:53:12 10° WNW 10:56:45 17° NNW 11:00:10 10° NNE daylight
28 Jul - 12:39:29 10° NNW 12:41:04 11° N 12:42:37 10° NNE daylight
28 Jul - 14:21:41 10° NNW 14:25:17 19° NNE 14:28:40 10° ENE daylight
28 Jul - 16:03:21 10° NNW 16:08:19 69° NE 16:12:51 10° SE daylight
28 Jul - 17:46:30 10° WNW 17:49:44 18° WSW 17:52:49 10° SSW daylight
29 Jul - 06:37:31 10° SSE 06:41:51 22° ESE 06:46:01 10° ENE daylight
29 Jul - 08:17:38 10° SW 08:23:28 78° NW 08:28:57 10° NE daylight
29 Jul - 10:01:55 10° W 10:06:21 23° NNW 10:10:33 10° NNE daylight
29 Jul - 11:48:33 10° NNW 11:50:24 12° N 11:52:14 10° NNE daylight
29 Jul - 13:32:02 10° NNW 13:34:48 14° NNE 13:37:26 10° NE daylight
29 Jul - 15:13:36 10° NNW 15:18:20 40° NE 15:22:39 10° ESE daylight
29 Jul - 16:55:55 10° NW 17:00:19 35° WSW 17:04:23 10° S daylight
30 Jul - 05:50:37 10° ESE 05:52:28 12° ESE 05:54:18 10° E daylight
30 Jul - 07:27:54 10° SSW 07:33:39 63° ESE 07:39:04 10° NE daylight
30 Jul - 09:10:58 10° WSW 09:16:05 33° NW 09:20:55 10° NNE daylight
30 Jul - 10:57:07 10° NW 10:59:47 14° NNW 11:02:24 10° NNE daylight
30 Jul - 12:42:16 10° NNW 12:44:13 12° N 12:46:05 10° NNE daylight
30 Jul - 14:23:56 10° NNW 14:28:08 26° NE 14:32:02 10° E daylight
30 Jul - 16:05:49 10° NW 16:10:42 69° WSW 16:15:08 10° SSE daylight
31 Jul - 06:38:44 10° S 06:43:59 36° ESE 06:48:59 10° NE daylight
31 Jul - 08:20:23 10° WSW 08:25:59 50° NW 08:31:15 10° NNE daylight
31 Jul - 10:05:39 10° WNW 10:09:16 17° NNW 10:12:43 10° NNE daylight
31 Jul - 11:52:04 10° NNW 11:53:33 11° N 11:55:01 10° NNE daylight
31 Jul - 13:34:19 10° NNW 13:37:47 18° NNE 13:41:03 10° ENE daylight
31 Jul - 15:15:57 10° NNW 15:20:52 65° NE 15:25:21 10° SE daylight
31 Jul - 16:58:59 10° WNW 17:02:21 19° WSW 17:05:32 10° SSW daylight
01 Aug - 05:50:19 10° SSE 05:54:27 21° ESE 05:58:28 10° ENE daylight
01 Aug - 07:30:13 10° SW 07:36:02 82° NW 07:41:30 10° NE daylight
01 Aug - 09:14:24 10° W 09:18:52 23° NNW 09:23:07 10° NNE daylight
01 Aug - 11:01:02 10° NNW 11:02:53 12° N 11:04:42 10° NNE daylight
01 Aug - 12:44:40 10° NNW 12:47:17 14° NNE 12:49:48 10° NE daylight
01 Aug - 14:26:13 10° NNW 14:30:51 37° NE 14:35:07 10° ESE daylight
01 Aug - 16:08:28 10° NW 16:12:54 37° WSW 16:17:00 10° S daylight
02 Aug - 05:03:56 10° ESE 05:05:07 11° ESE 05:06:16 10° E daylight
02 Aug - 06:40:33 10° SSW 06:46:14 59° ESE 06:51:37 10° NE daylight
02 Aug - 08:23:28 10° WSW 08:28:38 34° NW 08:33:29 10° NNE daylight
02 Aug - 10:09:33 10° NW 10:12:16 14° NNW 10:14:55 10° NNE daylight
02 Aug - 11:54:54 10° NNW 11:56:41 12° N 11:58:25 10° NNE daylight
02 Aug - 13:36:33 10° NNW 13:40:39 24° NE 13:44:27 10° E daylight
02 Aug - 15:18:23 10° NW 15:23:16 74° WSW 15:27:42 10° SSE daylight
